Location: Dana
(41.8364°N, 106.7042°W)
Time: 15:04:32
(UTC+00:00)

Transit 2A - Pass Details

Date: 16 May 2026
Orbit: 595 x 948 km, 66.7° (Epoch: 8 June)

Event Time Altitude Azimuth Distance (km) Brightness Sun altitude
Rises 21:21:41 0° 180° (S) 3,596 9.7 53.0°
Reaches altitude 10° 21:24:30 10° 171° (S) 2,640 9.1 52.6°
Maximum altitude 21:29:53 32° 110° (ESE) 1,503 7.6 51.6°
Drops below altitude 10° 21:35:02 10° 49° (NE) 2,517 8.4 50.8°
Sets 21:37:39 0° 40° (NE) 3,406 9.0 50.3°
